When you browse on this site, cookies collect data to enhance your experience and personalize the content and advertising you see.
Visit our Privacy Policy to learn more. By continuing to use the site, you agree to this use of cookies and data.

Stündliche Wetter Komissarovo

Heute, 20 September, Sonntag

Zeit Temperatur Niederschläge Wind Luftdruck Luftfeuchtigkeit
00:00 +5°C° 0 mm 3 m/S 748 mmHg 91%
01:00 +5°C° 0 mm 3 m/S 748 mmHg 92%
02:00 +6°C° 0 mm 2 m/S 749 mmHg 95%
03:00 +5°C° 0 mm 2 m/S 749 mmHg 95%
04:00 +5°C° 0 mm 2 m/S 749 mmHg 95%
05:00 +4°C° 0 mm 3 m/S 749 mmHg 94%
06:00 +5°C° 0 mm 3 m/S 750 mmHg 91%
07:00 +7°C° 0 mm 3 m/S 750 mmHg 87%
08:00 +8°C° 0 mm 3 m/S 750 mmHg 84%
09:00 +10°C° 0 mm 4 m/S 750 mmHg 77%
10:00 +11°C° 0 mm 4 m/S 751 mmHg 71%
11:00 +12°C° 0 mm 4 m/S 751 mmHg 64%
12:00 +13°C° 0 mm 4 m/S 751 mmHg 63%
13:00 +13°C° 0 mm 3 m/S 751 mmHg 62%
14:00 +14°C° 0 mm 3 m/S 751 mmHg 61%
15:00 +13°C° 0 mm 3 m/S 750 mmHg 66%
16:00 +13°C° 0 mm 2 m/S 750 mmHg 71%
17:00 +13°C° 0 mm 2 m/S 750 mmHg 76%
18:00 +10°C° 0 mm 2 m/S 750 mmHg 79%
19:00 +9°C° 0 mm 2 m/S 750 mmHg 82%
20:00 +8°C° 0 mm 2 m/S 750 mmHg 85%
21:00 +7°C° 0 mm 2 m/S 750 mmHg 86%
22:00 +7°C° 0 mm 2 m/S 750 mmHg 87%
23:00 +6°C° 0 mm 2 m/S 750 mmHg 88%

Morgen, 21 September, Montag

Zeit Temperatur Niederschläge Wind Luftdruck Luftfeuchtigkeit
00:00 +6°C° 0 mm 2 m/S 750 mmHg 90%
01:00 +6°C° 0 mm 2 m/S 750 mmHg 91%
02:00 +6°C° 0 mm 2 m/S 750 mmHg 92%
03:00 +6°C° 0 mm 2 m/S 750 mmHg 92%
04:00 +5°C° 0 mm 2 m/S 750 mmHg 93%
05:00 +5°C° 0 mm 2 m/S 749 mmHg 93%
06:00 +5°C° 0 mm 3 m/S 749 mmHg 89%
07:00 +7°C° 0 mm 3 m/S 749 mmHg 85%
08:00 +8°C° 0 mm 3 m/S 750 mmHg 81%
09:00 +10°C° 0 mm 3 m/S 749 mmHg 77%
10:00 +12°C° 0 mm 4 m/S 749 mmHg 73%
11:00 +13°C° 0 mm 4 m/S 749 mmHg 69%
12:00 +14°C° 0 mm 4 m/S 749 mmHg 68%
13:00 +15°C° 0 mm 5 m/S 749 mmHg 68%
14:00 +16°C° 0 mm 5 m/S 749 mmHg 68%
15:00 +17°C° 0 mm 4 m/S 749 mmHg 73%
16:00 +15°C° 0 mm 4 m/S 748 mmHg 78%
17:00 +16°C° 0 mm 3 m/S 748 mmHg 83%
18:00 +14°C° 0 mm 3 m/S 748 mmHg 86%
19:00 +13°C° 0 mm 3 m/S 748 mmHg 89%
20:00 +12°C° 0 mm 3 m/S 748 mmHg 93%
21:00 +11°C° 0 mm 3 m/S 748 mmHg 92%
22:00 +11°C° 0 mm 3 m/S 748 mmHg 92%
23:00 +11°C° 0 mm 4 m/S 748 mmHg 92%

übermorgen, 22 September, Dienstag

Zeit Temperatur Niederschläge Wind Luftdruck Luftfeuchtigkeit
00:00 +11°C° 0 mm 4 m/S 748 mmHg 92%
01:00 +10°C° 0 mm 4 m/S 748 mmHg 92%
02:00 +10°C° 0 mm 4 m/S 748 mmHg 92%
03:00 +10°C° 0 mm 4 m/S 747 mmHg 92%
04:00 +8°C° 0 mm 4 m/S 747 mmHg 92%
05:00 +8°C° 0 mm 4 m/S 747 mmHg 92%
06:00 +10°C° 0 mm 4 m/S 747 mmHg 88%
07:00 +11°C° 0 mm 4 m/S 747 mmHg 84%
08:00 +12°C° 0 mm 5 m/S 747 mmHg 80%
09:00 +14°C° 0 mm 5 m/S 747 mmHg 76%
10:00 +16°C° 0 mm 5 m/S 747 mmHg 71%
11:00 +17°C° 0 mm 5 m/S 747 mmHg 66%
12:00 +19°C° 0 mm 5 m/S 747 mmHg 65%
13:00 +20°C° 0 mm 5 m/S 747 mmHg 64%
14:00 +21°C° 0 mm 5 m/S 747 mmHg 62%
15:00 +20°C° 0 mm 4 m/S 746 mmHg 68%
16:00 +19°C° 0 mm 3 m/S 746 mmHg 73%
17:00 +18°C° 0 mm 3 m/S 746 mmHg 78%
18:00 +17°C° 0 mm 3 m/S 746 mmHg 81%
19:00 +14°C° 0 mm 3 m/S 746 mmHg 85%
20:00 +13°C° 0 mm 3 m/S 746 mmHg 88%
21:00 +14°C° 0 mm 2 m/S 746 mmHg 88%
22:00 +13°C° 0 mm 2 m/S 746 mmHg 88%
23:00 +13°C° 0 mm 2 m/S 746 mmHg 88%

23 September, Mittwoch

Zeit Temperatur Niederschläge Wind Luftdruck Luftfeuchtigkeit
00:00 +13°C° 0 mm 2 m/S 746 mmHg 89%
01:00 +12°C° 0 mm 2 m/S 746 mmHg 89%
02:00 +12°C° 0 mm 2 m/S 746 mmHg 90%
03:00 +12°C° 0 mm 2 m/S 746 mmHg 90%
04:00 +12°C° 0 mm 2 m/S 746 mmHg 89%
05:00 +12°C° 0 mm 2 m/S 746 mmHg 89%
06:00 +12°C° 0 mm 3 m/S 746 mmHg 85%
07:00 +13°C° 0 mm 3 m/S 746 mmHg 81%
08:00 +14°C° 0 mm 3 m/S 746 mmHg 77%
09:00 +15°C° 0 mm 4 m/S 746 mmHg 72%
10:00 +18°C° 0 mm 4 m/S 746 mmHg 66%
11:00 +20°C° 0 mm 4 m/S 746 mmHg 60%
12:00 +20°C° 0 mm 4 m/S 746 mmHg 58%
13:00 +21°C° 0 mm 4 m/S 746 mmHg 55%
14:00 +21°C° 0 mm 4 m/S 746 mmHg 53%
15:00 +20°C° 0 mm 4 m/S 746 mmHg 59%
16:00 +19°C° 0 mm 3 m/S 745 mmHg 64%
17:00 +17°C° 0 mm 3 m/S 745 mmHg 70%
18:00 +16°C° 0 mm 3 m/S 745 mmHg 70%
19:00 +14°C° 0 mm 3 m/S 745 mmHg 71%
20:00 +13°C° 0 mm 3 m/S 745 mmHg 71%
21:00 +12°C° 0 mm 3 m/S 745 mmHg 70%
22:00 +12°C° 0 mm 3 m/S 745 mmHg 70%
23:00 +12°C° 0 mm 3 m/S 745 mmHg 69%

24 September, Donnerstag

Zeit Temperatur Niederschläge Wind Luftdruck Luftfeuchtigkeit
00:00 +11°C° 0 mm 3 m/S 745 mmHg 68%
01:00 +11°C° 0 mm 3 m/S 745 mmHg 68%
02:00 +11°C° 0 mm 3 m/S 745 mmHg 68%
03:00 +10°C° 0 mm 3 m/S 745 mmHg 68%
04:00 +10°C° 0 mm 3 m/S 745 mmHg 67%
05:00 +10°C° 0 mm 3 m/S 745 mmHg 67%
06:00 +11°C° 0 mm 3 m/S 745 mmHg 65%
07:00 +12°C° 0 mm 4 m/S 745 mmHg 64%
08:00 +12°C° 0 mm 4 m/S 745 mmHg 62%
09:00 +14°C° 0 mm 4 m/S 745 mmHg 60%
10:00 +15°C° 0 mm 4 m/S 745 mmHg 58%
11:00 +18°C° 0 mm 4 m/S 745 mmHg 55%
12:00 +18°C° 0 mm 4 m/S 745 mmHg 56%
13:00 +19°C° 0 mm 4 m/S 745 mmHg 56%
14:00 +20°C° 0 mm 4 m/S 745 mmHg 56%
15:00 +19°C° 0 mm 4 m/S 745 mmHg 61%
16:00 +18°C° 0 mm 4 m/S 745 mmHg 66%
17:00 +17°C° 0 mm 4 m/S 745 mmHg 70%
18:00 +15°C° 0 mm 4 m/S 745 mmHg 72%
19:00 +14°C° 0 mm 4 m/S 745 mmHg 74%
20:00 +13°C° 0 mm 4 m/S 745 mmHg 75%
21:00 +13°C° 0 mm 4 m/S 745 mmHg 75%
22:00 +12°C° 0 mm 3 m/S 745 mmHg 75%
23:00 +12°C° 0 mm 3 m/S 745 mmHg 75%

25 September, Freitag

Zeit Temperatur Niederschläge Wind Luftdruck Luftfeuchtigkeit
00:00 +12°C° 0 mm 3 m/S 745 mmHg 74%
01:00 +11°C° 0 mm 3 m/S 745 mmHg 73%
02:00 +11°C° 0 mm 3 m/S 745 mmHg 73%
03:00 +11°C° 0 mm 3 m/S 745 mmHg 71%
04:00 +11°C° 0 mm 3 m/S 744 mmHg 69%
05:00 +10°C° 0 mm 3 m/S 744 mmHg 67%
06:00 +11°C° 0 mm 3 m/S 744 mmHg 66%
07:00 +12°C° 0 mm 4 m/S 744 mmHg 65%
08:00 +13°C° 0 mm 4 m/S 744 mmHg 64%
09:00 +15°C° 0 mm 4 m/S 744 mmHg 61%
10:00 +17°C° 0 mm 4 m/S 744 mmHg 59%
11:00 +19°C° 0 mm 4 m/S 744 mmHg 56%
12:00 +20°C° 0 mm 4 m/S 744 mmHg 56%
13:00 +21°C° 0 mm 5 m/S 744 mmHg 55%
14:00 +21°C° 0 mm 5 m/S 744 mmHg 55%
15:00 +20°C° 0 mm 4 m/S 743 mmHg 60%
16:00 +19°C° 0 mm 4 m/S 743 mmHg 65%
17:00 +18°C° 0 mm 4 m/S 743 mmHg 71%
18:00 +17°C° 0 mm 4 m/S 743 mmHg 72%
19:00 +15°C° 0 mm 4 m/S 743 mmHg 72%
20:00 +15°C° 0 mm 4 m/S 743 mmHg 73%
21:00 +14°C° 0 mm 4 m/S 742 mmHg 73%
22:00 +14°C° 0 mm 4 m/S 742 mmHg 73%
23:00 +14°C° 0 mm 4 m/S 742 mmHg 72%
Mehr zeigen